| time (UTC) | temp C | wind direction | speed KPH | gust KPH | rain 1hr cm | rain 24hr cm | rain mn cm | humidity % | barometer mb |
| 20260831203101 | 23 | 11 | 3.2 | 11.3 | 0.00 | 0.00 | 0.00 | 50 | 1009.9 |
| 20260831201608 | 23 | 329 | 3.2 | 12.9 | 0.00 | 0.00 | 0.00 | 51 | 1010.0 |
| 20260831200056 | 23 | 74 | 1.6 | 8.0 | 0.00 | 0.00 | 0.00 | 51 | 1010.2 |
| 20260831194558 | 22 | 15 | 3.2 | 17.7 | 0.00 | 0.00 | 0.00 | 54 | 1010.4 |
| 20260831193123 | 22 | 68 | 4.8 | 12.9 | 0.00 | 0.00 | 0.00 | 54 | 1010.6 |
| 20260831191601 | 21 | 20 | 6.4 | 14.5 | 0.00 | 0.00 | 0.00 | 56 | 1010.9 |
| 20260831190100 | 21 | 5 | 4.8 | 11.3 | 0.00 | 0.00 | 0.00 | 56 | 1011.1 |
| 20260831184555 | 21 | 32 | 3.2 | 14.5 | 0.00 | 0.00 | 0.00 | 57 | 1011.3 |
| 20260831183106 | 21 | 44 | 3.2 | 16.1 | 0.00 | 0.00 | 0.00 | 58 | 1011.3 |
| 20260831181613 | 20 | 11 | 1.6 | 8.0 | 0.00 | 0.00 | 0.00 | 58 | 1011.3 |
| 20260831174554 | 19 | 36 | 0.0 | 6.4 | 0.00 | 0.00 | 0.00 | 62 | 1011.4 |
| 20260831173049 | 18 | 0 | 1.6 | 8.0 | 0.00 | 0.00 | 0.00 | 65 | 1011.5 |
| 20260831171557 | 17 | 68 | 1.6 | 8.0 | 0.00 | 0.00 | 0.00 | 67 | 1011.6 |
| 20260831170056 | 16 | 0 | 1.6 | 4.8 | 0.00 | 0.00 | 0.00 | 69 | 1011.7 |
| 20260831164608 | 16 | 44 | 1.6 | 6.4 | 0.00 | 0.00 | 0.00 | 73 | 1011.7 |
| 20260831163059 | 15 | 309 | 0.0 | 4.8 | 0.00 | 0.00 | 0.00 | 74 | 1011.9 |
| 20260831161604 | 15 | 33 | 1.6 | 4.8 | 0.00 | 0.00 | 0.00 | 76 | 1012.1 |
| 20260831160110 | 13 | 345 | 0.0 | 3.2 | 0.00 | 0.00 | 0.00 | 80 | 1012.2 |
| 20260831154624 | 13 | 0 | 0.0 | 1.6 | 0.00 | 0.00 | 0.00 | 84 | 1012.3 |
| 20260831153053 | 11 | 0 | 0.0 | 1.6 | 0.00 | 0.00 | 0.00 | 88 | 1012.3 |
| 20260831151553 | 10 | 0 | 0.0 | 0.0 | 0.00 | 0.00 | 0.00 | 92 | 1012.3 |
| 20260831150106 | 9 | 0 | 0.0 | 0.0 | 0.00 | 0.00 | 0.00 | 94 | 1012.1 |
| 20260831144600 | 8 | 0 | 0.0 | 0.0 | 0.00 | 0.00 | 0.00 | 93 | 1012.1 |
| 20260831143054 | 8 | 0 | 0.0 | 0.0 | 0.00 | 0.00 | 0.00 | 92 | 1012.2 |
| 20260831141552 | 8 | 0 | 0.0 | 0.0 | 0.00 | 0.00 | 0.00 | 92 | 1012.2 |
| 20260831140100 | 8 | 0 | 0.0 | 0.0 | 0.00 | 0.00 | 0.00 | 92 | 1012.1 |
| 20260831134605 | 8 | 0 | 0.0 | 0.0 | 0.00 | 0.00 | 0.00 | 91 | 1012.0 |
| 20260831133056 | 8 | 0 | 0.0 | 0.0 | 0.00 | 0.00 | 0.00 | 91 | 1012.1 |
| 20260831131604 | 8 | 0 | 0.0 | 0.0 | 0.00 | 0.00 | 0.00 | 90 | 1012.0 |
| 20260831130106 | 8 | 0 | 0.0 | 0.0 | 0.00 | 0.00 | 0.00 | 90 | 1012.1 |
| 20260831124556 | 9 | 0 | 0.0 | 0.0 | 0.00 | 0.00 | 0.00 | 90 | 1012.2 |
| 20260831123054 | 9 | 0 | 0.0 | 0.0 | 0.00 | 0.00 | 0.00 | 90 | 1012.3 |
| 20260831121600 | 9 | 0 | 0.0 | 0.0 | 0.00 | 0.00 | 0.00 | 90 | 1012.5 |
| 20260831120059 | 9 | 0 | 0.0 | 0.0 | 0.00 | 0.00 | 0.00 | 90 | 1012.4 |
| 20260831114556 | 9 | 0 | 0.0 | 0.0 | 0.00 | 0.00 | 0.00 | 89 | 1012.4 |
| 20260831113056 | 9 | 0 | 0.0 | 0.0 | 0.00 | 0.00 | 0.00 | 89 | 1012.5 |
| 20260831111605 | 10 | 0 | 0.0 | 0.0 | 0.00 | 0.00 | 0.00 | 88 | 1012.6 |
| 20260831110055 | 10 | 0 | 0.0 | 0.0 | 0.00 | 0.00 | 0.00 | 88 | 1012.5 |
| 20260831104600 | 10 | 0 | 0.0 | 0.0 | 0.00 | 0.00 | 0.00 | 87 | 1012.6 |
| 20260831103057 | 10 | 0 | 0.0 | 0.0 | 0.00 | 0.00 | 0.00 | 86 | 1012.5 |
| 20260831101556 | 10 | 0 | 0.0 | 0.0 | 0.00 | 0.00 | 0.00 | 87 | 1012.8 |
| 20260831100116 | 10 | 0 | 0.0 | 0.0 | 0.00 | 0.00 | 0.00 | 86 | 1012.9 |
| 20260831094554 | 11 | 0 | 0.0 | 0.0 | 0.00 | 0.00 | 0.00 | 85 | 1013.0 |
| 20260831093057 | 11 | 0 | 0.0 | 0.0 | 0.00 | 0.00 | 0.00 | 84 | 1013.1 |
| 20260831091557 | 11 | 0 | 0.0 | 1.6 | 0.00 | 0.00 | 0.00 | 84 | 1013.3 |
| 20260831090114 | 11 | 0 | 0.0 | 0.0 | 0.00 | 0.00 | 0.00 | 83 | 1013.4 |
| 20260831084559 | 11 | 0 | 0.0 | 0.0 | 0.00 | 0.00 | 0.00 | 82 | 1013.5 |
| 20260831083109 | 11 | 0 | 0.0 | 0.0 | 0.00 | 0.00 | 0.00 | 82 | 1013.6 |
| 20260831081601 | 12 | 0 | 0.0 | 0.0 | 0.00 | 0.00 | 0.00 | 81 | 1013.7 |
| 20260831080124 | 12 | 0 | 0.0 | 0.0 | 0.00 | 0.00 | 0.00 | 81 | 1013.8 |
| 20260831074602 | 12 | 0 | 0.0 | 1.6 | 0.00 | 0.00 | 0.00 | 79 | 1013.9 |
| 20260831073103 | 12 | 0 | 0.0 | 3.2 | 0.00 | 0.00 | 0.00 | 79 | 1014.0 |
| 20260831071555 | 12 | 0 | 0.0 | 1.6 | 0.00 | 0.00 | 0.00 | 78 | 1014.2 |
| 20260831070051 | 12 | 0 | 0.0 | 3.2 | 0.00 | 0.00 | 0.00 | 78 | 1014.2 |
| 20260831064557 | 13 | 0 | 0.0 | 0.0 | 0.00 | 0.00 | 0.00 | 77 | 1014.3 |
| 20260831063108 | 13 | 0 | 0.0 | 0.0 | 0.00 | 0.00 | 0.00 | 76 | 1014.3 |
| 20260831061555 | 13 | 0 | 0.0 | 0.0 | 0.00 | 0.00 | 0.00 | 75 | 1014.2 |
| 20260831060053 | 13 | 0 | 0.0 | 0.0 | 0.00 | 0.00 | 0.00 | 73 | 1014.3 |
| 20260831054558 | 14 | 0 | 0.0 | 0.0 | 0.00 | 0.00 | 0.00 | 72 | 1014.4 |
| 20260831053125 | 15 | 0 | 0.0 | 0.0 | 0.00 | 0.00 | 0.00 | 71 | 1014.5 |
| 20260831051600 | 15 | 0 | 0.0 | 0.0 | 0.00 | 0.00 | 0.00 | 69 | 1014.6 |
| 20260831050058 | 16 | 0 | 0.0 | 0.0 | 0.00 | 0.00 | 0.00 | 67 | 1014.7 |
| 20260831044639 | 16 | 0 | 0.0 | 0.0 | 0.00 | 0.00 | 0.00 | 65 | 1014.8 |
| 20260831043100 | 17 | 0 | 0.0 | 0.0 | 0.00 | 0.00 | 0.00 | 62 | 1014.9 |
| 20260831041603 | 18 | 0 | 0.0 | 0.0 | 0.00 | 0.00 | 0.00 | 59 | 1014.9 |
| 20260831040056 | 19 | 0 | 0.0 | 3.2 | 0.00 | 0.00 | 0.00 | 55 | 1014.7 |
| 20260831034548 | 20 | 0 | 0.0 | 3.2 | 0.00 | 0.00 | 0.00 | 52 | 1014.6 |
| 20260831033106 | 21 | 0 | 0.0 | 9.7 | 0.00 | 0.00 | 0.00 | 51 | 1014.6 |
| 20260831031600 | 21 | 0 | 0.0 | 6.4 | 0.00 | 0.00 | 0.00 | 50 | 1014.6 |
| 20260831030056 | 21 | 0 | 0.0 | 6.4 | 0.00 | 0.00 | 0.00 | 48 | 1014.5 |
| 20260831024552 | 22 | 0 | 0.0 | 8.0 | 0.00 | 0.00 | 0.00 | 46 | 1014.5 |
| 20260831023059 | 22 | 15 | 1.6 | 12.9 | 0.00 | 0.00 | 0.00 | 43 | 1014.6 |
| 20260831021557 | 22 | 5 | 1.6 | 6.4 | 0.00 | 0.00 | 0.00 | 38 | 1014.6 |
| 20260831020056 | 23 | 331 | 4.8 | 16.1 | 0.00 | 0.00 | 0.00 | 36 | 1014.6 |
| 20260831014553 | 23 | 0 | 3.2 | 17.7 | 0.00 | 0.00 | 0.00 | 35 | 1014.7 |
| 20260831013102 | 23 | 61 | 1.6 | 17.7 | 0.00 | 0.00 | 0.00 | 36 | 1014.7 |
| 20260831011557 | 23 | 351 | 3.2 | 9.7 | 0.00 | 0.00 | 0.00 | 35 | 1014.8 |
| 20260831010118 | 24 | 332 | 1.6 | 20.9 | 0.00 | 0.00 | 0.00 | 34 | 1014.9 |
| 20260831004600 | 24 | 312 | 3.2 | 17.7 | 0.00 | 0.00 | 0.00 | 34 | 1015.1 |
| 20260831003055 | 24 | 248 | 1.6 | 14.5 | 0.00 | 0.00 | 0.00 | 35 | 1015.3 |
| 20260831001604 | 24 | 238 | 3.2 | 12.9 | 0.00 | 0.00 | 0.00 | 36 | 1015.4 |
| 20260831000110 | 24 | 49 | 4.8 | 19.3 | 0.00 | 0.00 | 0.00 | 36 | 1015.5 |
| 20260830234606 | 24 | 22 | 3.2 | 14.5 | 0.00 | 0.00 | 0.00 | 37 | 1015.7 |
| 20260830233056 | 24 | 26 | 4.8 | 20.9 | 0.00 | 0.00 | 0.00 | 37 | 1015.9 |
| 20260830231610 | 24 | 5 | 4.8 | 20.9 | 0.00 | 0.00 | 0.00 | 37 | 1016.1 |
| 20260830230100 | 24 | 360 | 4.8 | 19.3 | 0.00 | 0.00 | 0.00 | 37 | 1016.3 |
| 20260830224554 | 24 | 352 | 3.2 | 20.9 | 0.00 | 0.00 | 0.00 | 38 | 1016.5 |
| 20260830223056 | 24 | 5 | 4.8 | 20.9 | 0.00 | 0.00 | 0.00 | 37 | 1016.7 |
| 20260830221550 | 24 | 300 | 3.2 | 12.9 | 0.00 | 0.00 | 0.00 | 38 | 1017.0 |
| 20260830214603 | 24 | 335 | 1.6 | 9.7 | 0.00 | 0.00 | 0.00 | 40 | 1017.4 |
| 20260830213107 | 23 | 32 | 3.2 | 17.7 | 0.00 | 0.00 | 0.00 | 41 | 1017.7 |
| 20260830211555 | 23 | 324 | 3.2 | 19.3 | 0.00 | 0.00 | 0.00 | 43 | 1017.9 |
| 20260830210105 | 23 | 352 | 3.2 | 14.5 | 0.00 | 0.00 | 0.00 | 45 | 1018.1 |
| 20260830204552 | 22 | 322 | 4.8 | 12.9 | 0.00 | 0.00 | 0.00 | 45 | 1018.2 |